Location: Hurstbourne Priors
(51.2000°N, 1.3667°W)
Time: 20:54:52
(UTC+00:00)

Transit 4A - Pass Details

Date: 28 April 2021
Orbit: 871 x 974 km, 66.8° (Epoch: 16 May)

Event Time Altitude Azimuth Distance (km) Brightness Sun altitude
Rises 03:59:40 0° 317° (NW) 3,544 10.8 -6.9°
Reaches altitude 10° 04:02:38 10° 330° (NNW) 2,583 10.3 -6.5°
Maximum altitude 04:07:37 27° 27° (NNE) 1,654 10.1 -5.8°
Drops below altitude 10° 04:12:31 10° 84° (E) 2,534 11.5 -5.2°
Sets 04:15:23 0° 97° (E) 3,463 11.9 -4.8°
